Time,TemperatureF,DewpointF,PressureIn,WindDirection,WindDirectionDegrees,WindSpeedMPH,WindSpeedGustMPH,Humidity,HourlyPrecipIn,Conditions,Clouds,dailyrainin,SoftwareType,DateUTC
2013-10-24 00:15:00,32.0,26.0,30.14,South,169,0.0,0.0,79,0.00,,,0.00,,2013-10-24 04:15:00,
2013-10-24 00:24:00,32.0,27.0,30.15,South,169,0.0,1.0,81,0.00,,,0.00,,2013-10-24 04:24:00,
2013-10-24 00:44:00,32.0,27.0,30.16,South,169,0.0,0.0,83,0.00,,,0.00,,2013-10-24 04:44:00,
2013-10-24 00:54:00,31.0,26.0,30.16,South,169,0.0,0.0,81,0.00,,,0.00,,2013-10-24 04:54:00,
2013-10-24 01:13:00,31.0,27.0,30.16,South,169,0.0,0.0,84,0.00,,,0.00,,2013-10-24 05:13:00,
2013-10-24 01:22:00,31.0,26.0,30.16,South,169,0.0,1.0,83,0.00,,,0.00,,2013-10-24 05:22:00,
2013-10-24 01:43:00,31.0,26.0,30.17,SSW,199,0.0,4.0,83,0.00,,,0.00,,2013-10-24 05:43:00,
2013-10-24 01:53:00,31.0,27.0,30.17,SSW,199,0.0,0.0,84,0.00,,,0.00,,2013-10-24 05:53:00,
2013-10-24 02:12:00,31.0,26.0,30.16,SSW,199,0.0,0.0,83,0.00,,,0.00,,2013-10-24 06:12:00,
2013-10-24 02:22:00,31.0,27.0,30.17,SSW,199,0.0,1.0,84,0.00,,,0.00,,2013-10-24 06:22:00,
2013-10-24 02:42:00,31.0,27.0,30.18,SSW,199,0.0,1.0,84,0.00,,,0.00,,2013-10-24 06:42:00,
2013-10-24 02:52:00,31.0,27.0,30.19,SSW,199,0.0,2.0,85,0.00,,,0.00,,2013-10-24 06:52:00,
2013-10-24 03:12:00,31.0,27.0,30.19,SSW,199,0.0,1.0,85,0.00,,,0.00,,2013-10-24 07:12:00,
2013-10-24 03:22:00,31.0,27.0,30.19,WSW,255,0.0,2.0,85,0.00,,,0.00,,2013-10-24 07:22:00,
2013-10-24 03:42:00,31.0,27.0,30.20,WSW,255,0.0,0.0,86,0.00,,,0.00,,2013-10-24 07:42:00,
2013-10-24 03:52:00,32.0,29.0,30.20,WSW,255,0.0,0.0,87,0.00,,,0.00,,2013-10-24 07:52:00,
2013-10-24 04:11:00,32.0,28.0,30.21,WSW,255,0.0,0.0,84,0.00,,,0.00,,2013-10-24 08:11:00,
2013-10-24 04:22:00,32.0,28.0,30.21,WSW,255,0.0,0.0,86,0.00,,,0.00,,2013-10-24 08:22:00,
2013-10-24 04:42:00,32.0,28.0,30.21,WSW,255,0.0,0.0,85,0.00,,,0.00,,2013-10-24 08:42:00,
2013-10-24 04:53:00,32.0,28.0,30.21,WSW,255,0.0,0.0,86,0.00,,,0.00,,2013-10-24 08:53:00,
2013-10-24 05:12:00,32.0,28.0,30.21,WSW,255,0.0,0.0,86,0.00,,,0.00,,2013-10-24 09:12:00,
2013-10-24 05:22:00,31.0,27.0,30.22,WSW,255,0.0,0.0,86,0.00,,,0.00,,2013-10-24 09:22:00,
2013-10-24 05:43:00,31.0,27.0,30.22,WSW,255,0.0,0.0,86,0.00,,,0.00,,2013-10-24 09:43:00,
2013-10-24 05:53:00,30.0,27.0,30.23,WSW,255,0.0,0.0,87,0.00,,,0.00,,2013-10-24 09:53:00,
2013-10-24 06:13:00,30.0,27.0,30.23,WSW,255,0.0,0.0,88,0.00,,,0.00,,2013-10-24 10:13:00,
2013-10-24 06:23:00,30.0,27.0,30.24,WSW,255,0.0,0.0,89,0.00,,,0.00,,2013-10-24 10:23:00,
2013-10-24 06:43:00,31.0,28.0,30.24,WSW,255,0.0,0.0,89,0.00,,,0.00,,2013-10-24 10:43:00,
2013-10-24 06:53:00,31.0,28.0,30.24,SE,134,0.0,3.0,89,0.00,,,0.00,,2013-10-24 10:53:00,
2013-10-24 07:12:00,31.0,28.0,30.25,South,172,0.0,0.0,89,0.00,,,0.00,,2013-10-24 11:12:00,
2013-10-24 07:22:00,31.0,28.0,30.25,South,172,0.0,0.0,89,0.00,,,0.00,,2013-10-24 11:22:00,
2013-10-24 07:42:00,31.0,28.0,30.25,South,172,0.0,0.0,89,0.00,,,0.00,,2013-10-24 11:42:00,
2013-10-24 07:53:00,32.0,29.0,30.25,South,172,0.0,0.0,90,0.00,,,0.00,,2013-10-24 11:53:00,
2013-10-24 08:12:00,32.0,29.0,30.25,South,172,0.0,0.0,89,0.00,,,0.00,,2013-10-24 12:12:00,
2013-10-24 08:22:00,32.0,29.0,30.26,South,172,0.0,0.0,90,0.00,,,0.00,,2013-10-24 12:22:00,
2013-10-24 08:42:00,32.0,29.0,30.27,South,172,0.0,0.0,90,0.00,,,0.00,,2013-10-24 12:42:00,
2013-10-24 08:52:00,32.0,30.0,30.27,South,172,0.0,0.0,91,0.00,,,0.00,,2013-10-24 12:52:00,
2013-10-24 09:12:00,32.0,30.0,30.27,South,172,0.0,0.0,91,0.00,,,0.00,,2013-10-24 13:12:00,
2013-10-24 09:22:00,32.0,30.0,30.27,South,172,0.0,0.0,91,0.00,,,0.00,,2013-10-24 13:22:00,
2013-10-24 09:32:00,32.0,30.0,30.27,South,172,0.0,0.0,91,0.00,,,0.00,,2013-10-24 13:32:00,
2013-10-24 09:42:00,32.0,30.0,30.27,South,172,0.0,0.0,91,0.00,,,0.00,,2013-10-24 13:42:00,
2013-10-24 12:13:00,42.0,35.0,30.29,ENE,62,0.0,2.0,75,0.00,,,0.00,,2013-10-24 16:13:00,
2013-10-24 12:23:00,43.0,35.0,30.29,South,173,0.0,2.0,74,0.00,,,0.00,,2013-10-24 16:23:00,
2013-10-24 12:42:00,44.0,34.0,30.29,SSW,206,3.0,8.0,69,0.00,,,0.00,,2013-10-24 16:42:00,
2013-10-24 12:53:00,45.0,35.0,30.29,WSW,242,2.0,5.0,69,0.00,,,0.00,,2013-10-24 16:53:00,
2013-10-24 13:12:00,45.0,35.0,30.29,SSW,207,1.0,8.0,67,0.00,,,0.00,,2013-10-24 17:12:00,
2013-10-24 13:22:00,46.0,36.0,30.28,WNW,296,0.0,6.0,69,0.00,,,0.00,,2013-10-24 17:22:00,
2013-10-24 13:43:00,47.0,37.0,30.27,SW,221,1.0,5.0,67,0.00,,,0.00,,2013-10-24 17:43:00,
2013-10-24 13:52:00,48.0,36.0,30.27,South,177,0.0,6.0,62,0.00,,,0.00,,2013-10-24 17:52:00,
2013-10-24 14:12:00,49.0,37.0,30.26,ESE,122,1.0,9.0,62,0.00,,,0.00,,2013-10-24 18:12:00,
2013-10-24 14:23:00,49.0,37.0,30.26,ESE,103,0.0,7.0,63,0.00,,,0.00,,2013-10-24 18:23:00,
2013-10-24 14:42:00,49.0,36.0,30.25,NNE,12,2.0,6.0,60,0.00,,,0.00,,2013-10-24 18:42:00,
2013-10-24 14:53:00,49.0,37.0,30.25,ENE,70,0.0,5.0,62,0.00,,,0.00,,2013-10-24 18:53:00,
2013-10-24 15:11:00,49.0,37.0,30.24,ENE,65,0.0,6.0,62,0.00,,,0.00,,2013-10-24 19:11:00,
2013-10-24 15:22:00,49.0,38.0,30.24,NNW,345,1.0,4.0,65,0.00,,,0.00,,2013-10-24 19:22:00,
2013-10-24 15:43:00,49.0,36.0,30.24,NE,52,1.0,3.0,61,0.00,,,0.00,,2013-10-24 19:43:00,
2013-10-24 15:53:00,49.0,37.0,30.24,ENE,78,0.0,3.0,63,0.00,,,0.00,,2013-10-24 19:53:00,
2013-10-24 16:11:00,49.0,36.0,30.24,SSW,196,2.0,12.0,60,0.00,,,0.00,,2013-10-24 20:11:00,
2013-10-24 16:23:00,49.0,37.0,30.24,WNW,297,1.0,10.0,63,0.00,,,0.00,,2013-10-24 20:23:00,
2013-10-24 16:43:00,49.0,37.0,30.24,NW,324,1.0,5.0,63,0.00,,,0.00,,2013-10-24 20:43:00,
2013-10-24 16:53:00,49.0,38.0,30.25,North,350,0.0,2.0,66,0.00,,,0.00,,2013-10-24 20:53:00,
2013-10-24 17:12:00,48.0,36.0,30.25,WNW,298,2.0,8.0,64,0.00,,,0.00,,2013-10-24 21:12:00,
2013-10-24 17:22:00,48.0,36.0,30.24,SSW,204,3.0,11.0,63,0.00,,,0.00,,2013-10-24 21:22:00,
2013-10-24 17:43:00,48.0,37.0,30.24,SSW,207,0.0,7.0,65,0.00,,,0.00,,2013-10-24 21:43:00,
2013-10-24 17:54:00,48.0,38.0,30.25,SE,144,0.0,6.0,67,0.00,,,0.00,,2013-10-24 21:54:00,
2013-10-24 18:14:00,47.0,36.0,30.25,NNW,342,1.0,9.0,66,0.00,,,0.00,,2013-10-24 22:14:00,
2013-10-24 18:24:00,47.0,36.0,30.26,ENE,71,0.0,9.0,66,0.00,,,0.00,,2013-10-24 22:24:00,
2013-10-24 18:43:00,46.0,36.0,30.27,SW,231,0.0,4.0,69,0.00,,,0.00,,2013-10-24 22:43:00,
2013-10-24 18:54:00,45.0,35.0,30.27,South,189,1.0,15.0,69,0.00,,,0.00,,2013-10-24 22:54:00,
2013-10-24 19:13:00,45.0,37.0,30.27,West,278,1.0,3.0,72,0.00,,,0.00,,2013-10-24 23:13:00,
2013-10-24 19:22:00,45.0,37.0,30.27,WNW,300,0.0,4.0,72,0.00,,,0.00,,2013-10-24 23:22:00,
2013-10-24 19:43:00,44.0,36.0,30.28,West,260,0.0,0.0,73,0.00,,,0.00,,2013-10-24 23:43:00,
2013-10-24 19:53:00,44.0,36.0,30.28,NNW,343,0.0,3.0,73,0.00,,,0.00,,2013-10-24 23:53:00,
2013-10-24 20:12:00,44.0,37.0,30.28,SSE,149,0.0,2.0,75,0.00,,,0.00,,2013-10-25 00:12:00,
2013-10-24 20:22:00,43.0,36.0,30.29,ESE,108,1.0,3.0,75,0.00,,,0.00,,2013-10-25 00:22:00,
2013-10-24 20:42:00,43.0,36.0,30.29,ESE,117,0.0,3.0,76,0.00,,,0.00,,2013-10-25 00:42:00,
2013-10-24 20:52:00,43.0,36.0,30.29,SSE,153,0.0,7.0,76,0.00,,,0.00,,2013-10-25 00:52:00,
2013-10-24 21:12:00,43.0,36.0,30.30,ESE,113,0.0,3.0,77,0.00,,,0.00,,2013-10-25 01:12:00,
2013-10-24 21:22:00,43.0,37.0,30.30,East,84,0.0,5.0,78,0.00,,,0.00,,2013-10-25 01:22:00,
2013-10-24 21:43:00,42.0,35.0,30.30,ENE,63,0.0,4.0,77,0.00,,,0.00,,2013-10-25 01:43:00,
2013-10-24 21:53:00,42.0,35.0,30.30,NNE,32,1.0,5.0,77,0.00,,,0.00,,2013-10-25 01:53:00,
2013-10-24 22:12:00,42.0,35.0,30.30,East,101,0.0,11.0,76,0.00,,,0.00,,2013-10-25 02:12:00,
2013-10-24 22:23:00,42.0,35.0,30.30,NE,34,1.0,6.0,77,0.00,,,0.00,,2013-10-25 02:23:00,
2013-10-24 22:43:00,42.0,35.0,30.31,SSW,195,0.0,4.0,75,0.00,,,0.00,,2013-10-25 02:43:00,
2013-10-24 22:52:00,42.0,34.0,30.31,WNW,282,4.0,10.0,73,0.00,,,0.00,,2013-10-25 02:52:00,
2013-10-24 23:12:00,41.0,34.0,30.32,South,179,1.0,11.0,75,0.00,,,0.00,,2013-10-25 03:12:00,
2013-10-24 23:23:00,41.0,33.0,30.32,NW,311,1.0,9.0,74,0.00,,,0.00,,2013-10-25 03:23:00,
2013-10-24 23:44:00,41.0,34.0,30.32,NW,326,1.0,5.0,75,0.00,,,0.00,,2013-10-25 03:44:00,
2013-10-24 23:54:00,41.0,33.0,30.32,NNE,27,0.0,5.0,72,0.00,,,0.00,,2013-10-25 03:54:00,